This is the latest recevied weather packets stored in our database for station/object K5OBH. If no packets are shown the sender has not sent any weather packets the latest 1 day(s).
| Time | Temp. | Humidity | Pressure | Rain* | Wind** | Luminosity | Snow |
|---|---|---|---|---|---|---|---|
| 1778005737 | 13.89° C | 81% | 1007.4 hPa | 0 mm | 3.58 m/s, 9° | 201 W/m² | - |
| 1778005434 | 13.89° C | 80% | 1007.4 hPa | 0 mm | 3.58 m/s, 16° | 203 W/m² | - |
| 1778005131 | 13.89° C | 82% | 1007.1 hPa | 0 mm | 3.58 m/s, 1° | 167 W/m² | - |
| 1778004828 | 13.89° C | 82% | 1007.2 hPa | 0 mm | 2.68 m/s, 26° | 145 W/m² | - |
| 1778004525 | 13.89° C | 82% | 1007.1 hPa | 0 mm | 4.47 m/s, 52° | 154 W/m² | - |
| 1778004221 | 13.89° C | 83% | 1007.1 hPa | 0 mm | 4.92 m/s, 21° | 162 W/m² | - |
| 1778003918 | 13.89° C | 83% | 1006.9 hPa | 0 mm | 4.47 m/s, 348° | 160 W/m² | - |
| 1778003614 | 13.89° C | 83% | 1006.9 hPa | 0 mm | 3.13 m/s, 359° | 198 W/m² | - |
| 1778003311 | 14.44° C | 82% | 1006.8 hPa | 0 mm | 4.02 m/s, 39° | 217 W/m² | - |
| 1778003009 | 13.89° C | 83% | 1006.5 hPa | 0 mm | 4.47 m/s, 19° | 187 W/m² | - |
| 1778002704 | 13.89° C | 84% | 1006.4 hPa | 0 mm | 3.58 m/s, 27° | 149 W/m² | - |
| 1778002400 | 13.89° C | 84% | 1006.6 hPa | 0 mm | 4.92 m/s, 83° | 144 W/m² | - |
| 1778002098 | 14.44° C | 85% | 1006.6 hPa | 0 mm | 2.68 m/s, 356° | 133 W/m² | - |
| 1778001796 | 14.44° C | 84% | 1006.8 hPa | 0 mm | 3.13 m/s, 32° | 175 W/m² | - |
| 1778001495 | 14.44° C | 85% | 1006.3 hPa | 0 mm | 2.24 m/s, 12° | 139 W/m² | - |
| 1778001193 | 14.44° C | 85% | 1006.6 hPa | 0 mm | 2.24 m/s, 351° | 116 W/m² | - |
| 1778000889 | 14.44° C | 85% | 1006.3 hPa | 0 mm | 1.34 m/s, 22° | 112 W/m² | - |
| 1778000586 | 14.44° C | 85% | 1006.4 hPa | 0 mm | 3.13 m/s, 336° | 110 W/m² | - |
| 1778000281 | 14.44° C | 85% | 1006 hPa | 0 mm | 1.79 m/s, 351° | 118 W/m² | - |
| 1777999977 | 14.44° C | 85% | 1005.8 hPa | 0 mm | 4.02 m/s, 337° | 108 W/m² | - |
| 1777999673 | 14.44° C | 85% | 1005.7 hPa | 0 mm | 2.68 m/s, 42° | 96 W/m² | - |
| 1777999370 | 14.44° C | 85% | 1005.7 hPa | 0 mm | 3.13 m/s, 353° | 105 W/m² | - |
| 1777999069 | 14.44° C | 85% | 1005.5 hPa | 0 mm | 2.24 m/s, 356° | 119 W/m² | - |
| 1777998767 | 15° C | 86% | 1005.6 hPa | 0 mm | 4.47 m/s, 334° | 167 W/m² | - |
| 1777998464 | 14.44° C | 85% | 1005.4 hPa | 0 mm | 3.13 m/s, 334° | 169 W/m² | - |
* Rain latest hour (hover to see other rain measurements)
** Current wind speed in m/s (hover to see current wind gust speed)